Regional Weather Roundup
Issued by NWS

Home | Current Version | Previous Version | Graphics & Text | Print | Product List | Glossary On
Versions: 1 2 3 4 5 6 7 8 9 10 11 12 13 14 15 16 17 18 19 20 21 22 23 24 25 26 27
000
ASUS45 KBOU 242307
RWRCO

WEATHER ROUNDUP FOR COLORADO
NATIONAL WEATHER SERVICE DENVER/BOULDER CO
500 PM MDT WED AUG 24 2016

NOTE: "FAIR" INDICATES FEW OR NO CLOUDS BELOW 12000 FEET WITH NO
SIGNIFICANT WEATHER AND/OR OBSTRUCTIONS TO VISIBILITY.

COZ001>005-013-030-031-250000-
...NORTHWEST COLORADO...

CITY           SKY/WX    TMP DP  RH WIND       PRES   REMARKS
CRAIG          FAIR      81  23  11 NW7       30.13F
HAYDEN         FAIR      75  27  16 NW14G24   30.15F
MEEKER         FAIR      73  35  25 S14       30.15S
MOUNT WERNER   NOT AVBL
STEAMBOAT SPGS PTSUNNY   71  39  31 NE9       30.18F
WALDEN         PTSUNNY   61  32  33 N14       30.29S
$$

COZ006>008-011-250000-
...WEST CENTRAL VALLEYS...

CITY           SKY/WX    TMP DP  RH WIND       PRES   REMARKS
GRAND JUNCTION FAIR      86  37  17 E7        30.06F
MONTROSE       FAIR      78  33  19 VRB3      30.16F
EAGLE          MOSUNNY   73  34  23 W7        30.21S
RIFLE          FAIR      74  38  27 S6        30.13F
DELTA          FAIR      83  33  16 SE3       30.11S
NUCLA          FAIR      79  37  22 CALM      30.20F
$$

COZ017>023-064>068-250000-
...SOUTHWEST COLORADO...

CITY           SKY/WX    TMP DP  RH WIND       PRES   REMARKS
DURANGO        CLOUDY    63  45  51 N6        30.23F
CORTEZ         PTSUNNY   76  48  37 N8        30.18S
PAGOSA SPRINGS CLOUDY    67  47  48 SW8       30.29R THUNDER
TELLURIDE      FAIR      61  36  39 S5        30.41S
WOLF CREEK PAS CLOUDY    43  43 100 SW6       30.56S
$$

COZ009-010-012-014-032>034-037-058>063-250000-
...CENTRAL COLORADO...

CITY           SKY/WX    TMP DP  RH WIND       PRES   REMARKS
ASPEN          PTSUNNY   65  33  30 NW10G22   30.29R
BUENA VISTA    PTSUNNY   63  44  49 SE7       30.30S
COPPER MTN     PTSUNNY   50  34  53 W13       30.54R
BERTHOUD PASS  CLOUDY    37  25  60 W3        30.56R
COTTONWOOD PAS PTSUNNY   55  43  62 SE12      30.42R THUNDER
GUNNISON       FAIR      68  39  34 W14G22    30.28R
KREMMLING      CLOUDY    63  36  36 W3        30.28R THUNDER
LEADVILLE      PTSUNNY   54  35  48 N10G17    30.39R
MONARCH PASS   PTSUNNY   41  39  93 NE8       30.64S THUNDER
SALIDA         FAIR      62  48  60 SE12G18   30.37S
SUNLIGHT       LGT RAIN  50  34  53 NE6       30.52S
WILKERSON PASS CLOUDY    43  41  93 CALM      30.54R
$$

COZ069>075-250000-
...SAN LUIS VALLEY/SANGRE DE CRISTO MOUNTAINS...

CITY           SKY/WX    TMP DP  RH WIND       PRES   REMARKS
ALAMOSA        CLOUDY    60  46  59 SE7       30.29S
LA VETA PASS   TSTM      45  43  93 NE12      30.47S VSB 1/4
SAGUACHE       FAIR      68  39  34 SE10G17   30.29S
$$

COZ035-036-038>040-250000-
...NORTHERN COLORADO FRONT RANGE...

CITY           SKY/WX    TMP DP  RH WIND       PRES   REMARKS
DENVER INTL AP PTSUNNY   62  53  72 SE20      30.19F
DMNS CITY PARK   N/A     63  51  64 S7        30.21S
AURORA         PTSUNNY   63  51  64 S15       30.22F
FRONT RANGE AP NOT AVBL
ERIE MUNI ARPT FAIR      67  48  50 S16       30.20R
BOULDER MUN AP FAIR      68  45  42 SE13G20   30.18S
CENTENNIAL     PTSUNNY   63  47  55 S16       30.23F
BROOMFIELD     MOSUNNY   64  50  59 S15       30.22F
FORT COLLINS   NOT AVBL
LONGMONT       FAIR      71  47  42 S10G17    30.21R
$$

COZ041-046-047-076>085-087-088-250000-
...PIKES PEAK/PALMER DIVIDE AND SOUTHERN FOOTHILLS...

CITY           SKY/WX    TMP DP  RH WIND       PRES   REMARKS
COLO. SPRINGS  LGT RAIN  59  50  72 N15       30.29R
A. F. ACADEMY  LGT RAIN  56  53  91 NW7       30.30S
SCHRIEVER AFB  NOT AVBL
ELLICOTT       NOT AVBL
FALCON         CLOUDY    57  45  65 N9        30.32S
FORT CARSON    NOT AVBL
LIMON          CLOUDY    72  29  20 E9G18     30.21S
MONUMENT HILL  CLOUDY    54  45  71 W3        30.33F
TRINIDAD       RAIN      58  54  86 W9        30.27R FOG
$$

COZ042>045-048>051-090-091-250000-
...NORTHEAST COLORADO...

CITY           SKY/WX    TMP DP  RH WIND       PRES   REMARKS
GREELEY ARPT   FAIR      70  48  46 S9        30.19S
AKRON          CLOUDY    70  34  26 E9        30.19F
BURLINGTON     FAIR      72  36  26 E17G25    30.18R
WRAY           NOT AVBL
STERLING       FAIR      73  39  29 S5        30.15S
HOLYOKE        FAIR      79  41  25 SE9       30.16S
FORT MORGAN    CLOUDY    67  46  46 S6        30.19F
$$

COZ086-089-092>099-250000-
...SOUTHEAST COLORADO...

CITY           SKY/WX    TMP DP  RH WIND       PRES   REMARKS
PUEBLO         CLOUDY    71  50  47 N13       30.19R
LA JUNTA       FAIR      79  41  25 NE17G23   30.13R
LAMAR          FAIR      79  48  33 NE15G23   30.09S
SPRINGFIELD      N/A     76  54  46 NE10      30.11S
$$




USA.gov is the U.S. government's official web portal to all federal, state and local government web resources and services.